Flag for China Weather past 2 weeks in Chongqing, Chongqing Municipality, China

Now
73 °F

Clear.


Feels Like: 75 °F
Forecast: 71 / 92 °F
Wind: 1 mph from North

Location: Chongqing Airport

Current Time: May 30, 2015 at 11:04:13 AM

Latest Report: May 30, 2015 at 10:00 AM


Visibility: 4 mi

Pressure: 29.92 "Hg

Humidity: 74%

Dew point: 64 °F

Location of ChongqingLocation

Historic Weather in Chongqing — Graph

°F

Chongqing temperature yesterday

Maximum temperature yesterday: 81 °F (at 4:00 PM)
Minimum temperature yesterday: 68 °F (at 6:00 AM)
Average temperature yesterday: 74 °F

Past Weeks' High & Low Weather Summary

 TemperatureHumidityPressure
High90 °F (May 20, 4:00 PM)94% (May 15, 11:00 AM)29.95 "Hg (May 15, 11:00 AM)
Low64 °F (May 16, 5:00 AM)41% (May 20, 4:00 PM)29.56 "Hg (May 28, 4:00 AM)
Average72 °F77%29.77 "Hg
* Reported May 15 10:00 AM — May 30 10:00 AM, Chongqing, Weather by CustomWeather, © 2015

Note: Actual official high and low records may vary slightly from our data, if they occured in-between our weather recording intervals... More about our weather records

Advertising

Chongqing weather history for previous 24 hours

 ConditionsComfort  
Time TempWeatherWind HumidityBarometerVisibility
10:00 AM
Sat, May 30
73 °FClear.1 mph74%29.92 "Hg4 mi
9:00 AM72 °FFog.3 mph78%29.92 "Hg3 mi
8:00 AM70 °FClear.1 mph83%29.92 "Hg4 mi
7:00 AM70 °FClear.1 mph83%29.89 "Hg4 mi
6:00 AM70 °FClear.No wind83%29.89 "Hg4 mi
5:00 AM68 °FClear.No wind88%29.86 "Hg10 mi
4:00 AM70 °FClear.No wind83%29.83 "Hg10 mi
3:00 AM70 °FClear.No wind78%29.83 "Hg10 mi
2:00 AM70 °FClear.No wind83%29.83 "Hg10 mi
1:00 AM70 °FClear.No wind83%29.86 "Hg10 mi
12:00 AM72 °FClear.1 mph78%29.86 "Hg10 mi
11:00 PM
Fri, May 29
72 °FClear.3 mph78%29.86 "Hg10 mi
10:00 PM72 °FClear.1 mph78%29.83 "Hg10 mi
9:00 PM73 °FClear.3 mph69%29.80 "Hg10 mi
8:00 PM73 °FClear.3 mph69%29.77 "Hg10 mi
7:00 PM77 °FSunny.6 mph61%29.77 "Hg10 mi
6:00 PM79 °FScattered clouds.6 mph58%29.77 "HgN/A
5:00 PM79 °FScattered clouds.6 mph54%29.77 "HgN/A
4:00 PM81 °FScattered clouds.6 mph54%29.74 "HgN/A
3:00 PM79 °FPartly sunny.6 mph54%29.74 "HgN/A
2:00 PM79 °FScattered clouds.8 mph54%29.77 "HgN/A
1:00 PM79 °FScattered clouds.6 mph61%29.77 "HgN/A
12:00 PM73 °FScattered clouds.8 mph69%29.77 "HgN/A
11:00 AM73 °FScattered clouds.10 mph69%29.77 "HgN/A
Weather by CustomWeather, © 2015

See weather overviewHow to use our weather pages